Location: Mountain Grove
(34.0887°N, 86.6172°W)
Time: 23:57:48
(UTC+00:00)

ATLAS 2A CENTAUR R/B - Pass Details

Date: 14 July 2020
Orbit: 244 x 14724 km, 26.8° (Epoch: 12 August)

Event Time Altitude Azimuth Distance (km) Brightness Sun altitude
Rises 09:01:55 0° 267° (W) 8,987 8.0 -18.4°
Reaches altitude 10° 09:11:14 10° 264° (W) 5,602 6.9 -17.0°
Maximum altitude 09:22:20 41° 199° (SSW) 1,289 3.7 -15.2°
Drops below altitude 10° 09:25:42 10° 127° (SE) 1,717 5.0 -14.7°
Sets 09:27:08 0° 117° (ESE) 2,301 5.8 -14.5°
